Weather Roundup
Issued by NWS

Home | Current Version | Previous Version | Graphics & Text | Print | Product List | Glossary Off
Versions: 1 2 3 4 5 6 7 8 9 10 11 12 13 14 15 16 17 18 19 20 21 22 23 24 25 26 27 28 29 30 31 32 33 34 35 36 37 38 39 40 41 42 43 44 45 46 47 48 49 50

587
NZUS93 KARX 251159
HRRWXR

CURRENT HOURLY OBSERVATIONS ACROSS
MUCH OF THE UPPER MISSISSIPPI VALLEY
NATIONAL WEATHER SERVICE LA CROSSE WI
700 AM CDT SUN SEP 25 2016


...SOUTHEAST MINNESOTA...


CITY           SKY/WX    TMP DP  RH WIND       PRES   REMARKS
ROCHESTER      CLOUDY    67  67 100 S7        29.95S FOG
ROCHESTER/MAYO   N/A     67  67 100 S9        29.95R
WINONA         CLOUDY    70  64  83 SE6       29.93F
AUSTIN         CLOUDY    68  64  88 S8        29.93F FOG
ALBERT LEA     RAIN      66  66 100 S9        29.93S
DODGE CENTER   CLOUDY    66  64  94 S10       29.93S FOG
PRESTON        CLOUDY    66  64  94 S10       29.95S FOG
OWATONNA       CLOUDY    68  64  88 S7        29.91S
FARIBAULT      CLOUDY    66  66 100 S6        29.91S
$$

...ELSEWHERE IN MINNESOTA...


CITY           SKY/WX    TMP DP  RH WIND       PRES   REMARKS
MINNEAPOLIS    LGT RAIN  69  66  90 S14       29.87F FOG
INTNL FALLS    LGT RAIN  62  61  96 SE8       29.77F
DULUTH         LGT RAIN  60  60 100 SE12      29.88F FOG
RED WING       RAIN      68  66  94 SE5       29.89F
REDWOOD FALLS  MOCLDY    58  49  72 W8        29.92R
MANKATO        LGT RAIN  61  60  97 SW5       29.92S
WORTHINGTON    CLOUDY    54  48  80 W13G18    29.98R
FAIRMONT       CLOUDY    62  57  83 W14       29.95R
$$

...SOUTHWEST WISCONSIN...


CITY           SKY/WX    TMP DP  RH WIND       PRES   REMARKS
LA CROSSE      LGT RAIN  68  64  87 S10       29.93F
PRAIRIE DU CHI CLOUDY    65  63  92 E3        29.97F FOG
BOSCOBEL       MOCLDY    64  62  93 N6        29.99F FOG
LONE ROCK      NOT AVBL
PLATTEVILLE    PTCLDY    64  64 100 E3        30.01F
FORT MC COY    PTCLDY    65  63  93 S3        29.98F
CAMP DOUGLAS   CLOUDY    60  60  99 SE8       29.99F
MAUSTON-NEW LI CLOUDY    60  59  99 SE7       29.99F FOG
VIROQUA        CLOUDY    63  63 100 SE7       29.99F
WIS DELLS      NOT AVBL
$$

...ELSEWHERE IN WISCONSIN...


CITY           SKY/WX    TMP DP  RH WIND       PRES   REMARKS
MILWAUKEE      MOCLDY    67  62  84 SE9       30.08F
MADISON        CLOUDY    64  62  93 S8        30.03F
GREEN BAY      CLOUDY    62  61  96 SE9       30.07F
EAU CLAIRE     CLOUDY    65  62  90 SE8       29.93F
BLACK RVR FLS  FAIR      62  62 100 CALM      29.96F FOG
MEDFORD        CLOUDY   N/A N/A N/A SE8       30.00F
WAUSAU         CLOUDY    59  56  89 E7        30.02F
WIS RAPIDS     CLOUDY    61  60  97 SE6       30.02F
MARSHFIELD     CLOUDY    61  58  90 SE13      29.99F FOG
RICE LAKE      NOT AVBL
$$

...NORTHEAST IOWA...


CITY           SKY/WX    TMP DP  RH WIND       PRES   REMARKS
WATERLOO       CLOUDY    68  67  96 S6        29.95R FOG
DUBUQUE        CLOUDY    66  64  93 S8        30.00F FOG
DECORAH        CLOUDY    66  66 100 S8        29.95S FOG
MASON CITY     LGT RAIN  68  66  93 S10       29.96S
CHARLES CITY   CLOUDY    68  68 100 S7        29.97R FOG
OELWEIN        CLOUDY    66  66 100 S8        29.97S FOG
$$

...ELSEWHERE IN IOWA...


CITY           SKY/WX    TMP DP  RH WIND       PRES   REMARKS
DES MOINES     CLOUDY    69  67  93 S6        29.97S
IOWA CITY      PTCLDY    67  65  93 SE3       29.99S
FORT DODGE     CLOUDY    64  63  94 W12       29.99R
MARSHALLTOWN   CLOUDY    68  68 100 S7        29.97R
CEDAR RAPIDS   PTCLDY    67  67 100 SE6       29.97F FOG
$$

...NORTHERN ILLINOIS...


CITY           SKY/WX    TMP DP  RH WIND       PRES   REMARKS
CHICAGO-OHARE  PTCLDY    63  58  83 SE10      30.09S
CHICAGO-MIDWAY PTCLDY    65  56  72 SE7       30.09F
MOLINE         CLOUDY    69  65  86 SE6       30.00F FOG
ROCKFORD       MOCLDY    66  63  90 S9        30.06F
PEORIA         CLEAR     69  68  96 SE5       30.05S FOG
$$

NOTE: "FAIR" INDICATES FEW OR NO CLOUDS BELOW 12,000 FEET WITH NO
SIGNIFICANT WEATHER AND/OR OBSTRUCTIONS TO VISIBILITY. WIND
SPEEDS ARE IN MILES-PER-HOUR.




USA.gov is the U.S. government's official web portal to all federal, state and local government web resources and services.